This is the latest recevied weather packets stored in our database for station/object I2HLY-4. If no packets are shown the sender has not sent any weather packets the latest 10 day(s).
| Time | Temp. | Humidity | Pressure | Rain* | Wind** | Luminosity | Snow |
|---|---|---|---|---|---|---|---|
| 1778042843 | 7.78° C | 97% | 1011.3 hPa | 2.03 mm | - | - | - |
| 1778041947 | 7.78° C | 97% | 1011.2 hPa | 1.02 mm | - | - | - |
| 1778041046 | 7.78° C | 97% | 1011.1 hPa | 1.02 mm | - | - | - |
| 1778040131 | 8.33° C | 98% | 1011 hPa | 0 mm | - | - | - |
| 1778039232 | 8.33° C | 98% | 1011.1 hPa | 0 mm | - | - | - |
| 1778038331 | 8.33° C | 98% | 1011.2 hPa | 0 mm | - | - | - |
| 1778037436 | 8.33° C | 98% | 1011.4 hPa | 0 mm | - | - | - |
| 1778036538 | 8.33° C | 98% | 1011.4 hPa | 0 mm | - | - | - |
| 1778035636 | 8.33° C | 98% | 1011.9 hPa | 0 mm | - | - | - |
| 1778034740 | 8.33° C | 98% | 1012.1 hPa | 0 mm | - | - | - |
| 1778033843 | 8.33° C | 98% | 1012.3 hPa | 3.05 mm | - | - | - |
| 1778032947 | 8.33° C | 98% | 1012.5 hPa | 4.06 mm | - | - | - |
| 1778032048 | 8.33° C | 98% | 1012.4 hPa | 5.08 mm | - | - | - |
| 1778031150 | 8.33° C | 98% | 1012.3 hPa | 7.11 mm | - | - | - |
| 1778030234 | 8.33° C | 98% | 1012.5 hPa | 5.08 mm | - | - | - |
| 1778029335 | 8.33° C | 98% | 1012.6 hPa | 5.08 mm | - | - | - |
| 1778028443 | 8.33° C | 98% | 1012.7 hPa | 4.06 mm | - | - | - |
| 1778027534 | 8.33° C | 98% | 1012.8 hPa | 3.05 mm | - | - | - |
| 1778026633 | 8.33° C | 98% | 1012.9 hPa | 5.08 mm | - | - | - |
| 1778024844 | 8.33° C | 98% | 1013.1 hPa | 4.06 mm | - | - | - |
| 1778023943 | 8.33° C | 98% | 1013.1 hPa | 3.05 mm | - | - | - |
| 1778023045 | 8.33° C | 98% | 1013.2 hPa | 0 mm | - | - | - |
| 1778022149 | 8.33° C | 98% | 1013.2 hPa | 0 mm | - | - | - |
| 1778021250 | 8.33° C | 98% | 1013.2 hPa | 1.02 mm | - | - | - |
| 1778020336 | 8.33° C | 98% | 1013.3 hPa | 1.02 mm | - | - | - |
* Rain latest hour (hover to see other rain measurements)
** Current wind speed in m/s (hover to see current wind gust speed)